This is the latest recevied weather packets stored in our database for station/object F4GQK-13. If no packets are shown the sender has not sent any weather packets the latest 10 day(s).
| Time | Temp. | Humidity | Pressure | Rain* | Wind** | Luminosity | Snow |
|---|---|---|---|---|---|---|---|
| 1777118405 | 23.33° C | 35% | 1020.1 hPa | 0 mm | - | 739 W/m² | - |
| 1777118106 | 23.33° C | 31% | 1020 hPa | 0 mm | - | 749 W/m² | - |
| 1777117804 | 22.78° C | 32% | 1020.1 hPa | 0 mm | - | 755 W/m² | - |
| 1777117506 | 22.78° C | 36% | 1020.2 hPa | 0 mm | - | 744 W/m² | - |
| 1777117205 | 22.78° C | 34% | 1020.3 hPa | 0 mm | - | 755 W/m² | - |
| 1777116905 | 22.22° C | 37% | 1020.2 hPa | 0 mm | - | 754 W/m² | - |
| 1777116605 | 22.22° C | 38% | 1020.3 hPa | 0 mm | - | 755 W/m² | - |
| 1777116305 | 22.22° C | 38% | 1020.3 hPa | 0 mm | - | 752 W/m² | - |
| 1777116005 | 21.67° C | 43% | 1020.3 hPa | 0 mm | - | 744 W/m² | - |
| 1777115704 | 21.67° C | 41% | 1020.3 hPa | 0 mm | - | 739 W/m² | - |
| 1777115405 | 21.67° C | 43% | 1020.2 hPa | 0 mm | - | 736 W/m² | - |
| 1777115104 | 21.67° C | 41% | 1020.3 hPa | 0 mm | - | 732 W/m² | - |
| 1777114806 | 21.11° C | 44% | 1020.3 hPa | 0 mm | - | 726 W/m² | - |
| 1777114505 | 21.11° C | 42% | 1020.4 hPa | 0 mm | - | 723 W/m² | - |
| 1777114205 | 20.56° C | 45% | 1020.5 hPa | 0 mm | - | 716 W/m² | - |
| 1777113905 | 20.56° C | 46% | 1020.5 hPa | 0 mm | - | 706 W/m² | - |
| 1777113604 | 20.56° C | 45% | 1020.8 hPa | 0 mm | - | 703 W/m² | - |
| 1777113306 | 20° C | 44% | 1020.7 hPa | 0 mm | - | 695 W/m² | - |
| 1777113005 | 20.56° C | 44% | 1020.6 hPa | 0 mm | - | 689 W/m² | - |
| 1777112705 | 20° C | 44% | 1020.7 hPa | 0 mm | - | 680 W/m² | - |
| 1777112405 | 19.44° C | 49% | 1020.8 hPa | 0 mm | - | 672 W/m² | - |
| 1777112105 | 19.44° C | 47% | 1020.8 hPa | 0 mm | - | 669 W/m² | - |
| 1777111806 | 19.44° C | 48% | 1020.7 hPa | 0 mm | - | 659 W/m² | - |
| 1777111505 | 19.44° C | 51% | 1020.7 hPa | 0 mm | - | 647 W/m² | - |
| 1777111205 | 18.89° C | 49% | 1020.8 hPa | 0 mm | - | 632 W/m² | - |
* Rain latest hour (hover to see other rain measurements)
** Current wind speed in m/s (hover to see current wind gust speed)